Viroqua, WI

9:32 PM CST on December 12, 2017 (GMT -0600)
Viroqua

Weather History for KY51 - February, 2014

Change the Weather History Date:

Sunday, February 9, 2014

  Actual Average (KCMY) Record (KCMY)
Temperature  
Mean Temperature 3 °F -  
Max Temperature 11 °F 27 °F 52 °F (1991)
Min Temperature -5 °F 0 °F -38 °F (1951)
Degree Days  
Heating Degree Days 62    
Moisture  
Dew Point -3 °F    
Average Humidity 76    
Maximum Humidity 89    
Minimum Humidity 54    
Precipitation  
Precipitation 0.00 in - - ()
Sea Level Pressure  
Sea Level Pressure 30.16 in    
Wind  
Wind Speed 5 mph (WNW)    
Max Wind Speed 13 mph    
Max Gust Speed 18 mph    
Visibility 8 miles    
Events      
Averages and records for this station are not official NWS values.
T = Trace of Precipitation, MM = Missing Value Source: NWS Daily Summary

Daily Weather History Graph

Daily Weather History Graph

Search for Another Location

Airport or City:

Trip Planner

Search our weather history database for the weather conditions in past years. The results will help you decide how hot, cold, wet, or windy it might be!

Date:

Astronomy

Feb. 09, 2014 Rise Set
Actual Time 7:10 AM CST 5:25 PM CST
Civil Twilight 6:40 AM CST 5:55 PM CST
Nautical Twilight 6:06 AM CST 6:29 PM CST
Astronomical Twilight 5:33 AM CST 7:02 PM CST
Moon 1:02 PM CST (2/9) 3:18 AM CST (2/9)
Length of Visible Light 11h 15m
Length of Day
10h 15m
Waxing Gibbous, 77% of the Moon is Illuminated
Feb 9
Waxing Gibbous
Feb 14
Full
Feb 22
Last Quarter
Mar 1
New
Mar 8
First Quarter

Hourly Weather History & Observations

Time (CST) Temp. Windchill Dew Point Humidity Pressure Visibility Wind Dir Wind Speed Gust Speed Precip Events Conditions
12:15 AM 2.3 °F -5.2 °F -0.8 °F 87% 30.09 in 4.0 mi WNW 3.5 mph - N/A   Clear
12:35 AM 4.1 °F -3.2 °F 1.2 °F 88% 30.09 in 5.0 mi WNW 3.5 mph - N/A   Clear
12:55 AM 4.3 °F -2.9 °F 1.4 °F 88% 30.08 in 5.0 mi WNW 3.5 mph - N/A   Clear
1:15 AM 4.1 °F - 1.4 °F 89% 30.08 in 5.0 mi Calm Calm - N/A   Clear
1:35 AM 2.8 °F -6.6 °F -0.4 °F 86% 30.09 in 4.0 mi West 4.6 mph - N/A   Clear
1:55 AM 2.7 °F -4.8 °F -0.8 °F 86% 30.09 in 5.0 mi WNW 3.5 mph - N/A   Clear
2:15 AM 2.3 °F -5.2 °F -0.9 °F 86% 30.09 in 5.0 mi WNW 3.5 mph - N/A   Mostly Cloudy
2:35 AM 2.7 °F -4.8 °F -0.6 °F 86% 30.09 in 5.0 mi WNW 3.5 mph - N/A   Mostly Cloudy
2:55 AM 3.0 °F -4.4 °F -0.2 °F 86% 30.09 in 3.0 mi NW 3.5 mph - N/A   Mostly Cloudy
3:15 AM 3.6 °F - 0.5 °F 87% 30.09 in 3.0 mi Calm Calm - N/A   Overcast
3:35 AM 3.9 °F - 0.9 °F 87% 30.09 in 5.0 mi Calm Calm - N/A   Overcast
3:55 AM 3.4 °F - 0.3 °F 87% 30.09 in 7.0 mi Calm Calm - N/A   Overcast
4:15 AM 3.2 °F - -0.2 °F 86% 30.09 in 7.0 mi Calm Calm - N/A   Overcast
4:35 AM 3.6 °F - 0.5 °F 87% 30.10 in 7.0 mi Calm Calm - N/A   Overcast
4:55 AM 3.2 °F - -0.0 °F 86% 30.10 in 7.0 mi Calm Calm - N/A   Overcast
5:15 AM 3.0 °F - -0.4 °F 86% 30.10 in 7.0 mi Calm Calm - N/A   Overcast
5:35 AM 3.0 °F - -0.4 °F 86% 30.10 in 7.0 mi Calm Calm - N/A   Overcast
5:55 AM 3.2 °F - -0.2 °F 86% 30.10 in 4.0 mi Calm Calm - N/A   Overcast
6:15 AM 2.7 °F - -0.8 °F 86% 30.10 in 5.0 mi Calm Calm - N/A   Overcast
6:35 AM 2.3 °F - -1.3 °F 85% 30.10 in 4.0 mi Calm Calm - N/A   Overcast
6:55 AM 2.3 °F - -1.3 °F 85% 30.10 in 2.5 mi Calm Calm - N/A   Mostly Cloudy
7:15 AM 2.1 °F - -1.3 °F 86% 30.10 in 4.0 mi Calm Calm - N/A   Scattered Clouds
7:35 AM 2.5 °F - -0.8 °F 86% 30.10 in 5.0 mi Calm Calm - N/A   Clear
7:55 AM 2.3 °F - -0.8 °F 87% 30.12 in 4.0 mi Calm Calm - N/A   Clear
8:15 AM 2.1 °F - -1.3 °F 86% 30.13 in 4.0 mi Calm Calm - N/A   Clear
8:35 AM 2.7 °F - -0.6 °F 86% 30.12 in 4.0 mi Calm Calm - N/A   Clear
8:55 AM 3.0 °F - -0.2 °F 86% 30.12 in 5.0 mi Calm Calm - N/A   Clear
9:15 AM 4.3 °F -4.9 °F 1.4 °F 88% 30.13 in 4.0 mi West 4.6 mph - N/A   Mostly Cloudy
9:35 AM 5.7 °F -4.8 °F 3.0 °F 89% 30.14 in 2.0 mi WNW 5.8 mph - N/A   Overcast
9:55 AM 6.6 °F -5.0 °F 3.7 °F 88% 30.14 in 4.0 mi WNW 6.9 mph - N/A   Mostly Cloudy
10:15 AM 6.6 °F -6.1 °F 3.7 °F 88% 30.14 in 4.0 mi WNW 8.1 mph - N/A   Scattered Clouds
10:35 AM 7.2 °F -6.4 °F 4.5 °F 89% 30.15 in 5.0 mi WNW 9.2 mph - N/A   Scattered Clouds
10:55 AM 7.5 °F -6.0 °F 4.6 °F 88% 30.15 in 7.0 mi WNW 9.2 mph - N/A   Clear
11:15 AM 8.2 °F -5.1 °F 5.5 °F 89% 30.15 in 10.0 mi NW 9.2 mph - N/A   Clear
11:35 AM 8.6 °F -6.3 °F 5.7 °F 88% 30.15 in 10.0 mi WNW 11.5 mph - N/A   Clear
11:55 AM 9.0 °F -5.1 °F 5.2 °F 85% 30.14 in 10.0 mi WNW 10.4 mph - N/A   Clear
12:15 PM 10.0 °F -4.5 °F 4.5 °F 78% 30.14 in 10.0 mi WNW 11.5 mph - N/A   Scattered Clouds
12:35 PM 9.7 °F -5.7 °F 1.9 °F 71% 30.14 in 10.0 mi WNW 12.7 mph - N/A   Scattered Clouds
12:55 PM 11.5 °F -2.7 °F 2.3 °F 67% 30.14 in 10.0 mi WNW 11.5 mph 18.4 mph N/A   Mostly Cloudy
1:15 PM 10.8 °F -4.3 °F 0.5 °F 63% 30.13 in 10.0 mi WNW 12.7 mph - N/A   Scattered Clouds
1:35 PM 10.8 °F -4.3 °F -0.6 °F 60% 30.13 in 10.0 mi WNW 12.7 mph - N/A   Clear
1:55 PM 10.8 °F -3.6 °F -2.2 °F 56% 30.13 in 10.0 mi WNW 11.5 mph - N/A   Clear
2:15 PM 10.8 °F -4.3 °F -2.9 °F 54% 30.14 in 10.0 mi WNW 12.7 mph - N/A   Clear
2:35 PM 10.2 °F -3.5 °F -3.3 °F 55% 30.14 in 10.0 mi WNW 10.4 mph - N/A   Clear
2:55 PM 10.0 °F -2.9 °F -3.3 °F 55% 30.16 in 10.0 mi WNW 9.2 mph - N/A   Clear
3:15 PM 9.5 °F -5.2 °F -2.0 °F 60% 30.16 in 10.0 mi West 11.5 mph - N/A   Clear
3:35 PM 9.0 °F -5.1 °F -3.1 °F 58% 30.17 in 10.0 mi West 10.4 mph - N/A   Clear
3:55 PM 8.6 °F -5.5 °F -3.6 °F 58% 30.17 in 10.0 mi WNW 10.4 mph - N/A   Clear
4:15 PM 8.1 °F -7.0 °F -4.0 °F 58% 30.17 in 10.0 mi West 11.5 mph - N/A   Clear
4:35 PM 6.8 °F -7.8 °F -4.9 °F 59% 30.17 in 10.0 mi West 10.4 mph - N/A   Clear
4:55 PM 5.5 °F -10.2 °F -5.1 °F 62% 30.18 in 10.0 mi WNW 11.5 mph - N/A   Clear
5:15 PM 3.7 °F -9.6 °F -6.0 °F 64% 30.19 in 10.0 mi WNW 8.1 mph - N/A   Clear
5:35 PM 3.2 °F -12.2 °F -6.2 °F 65% 30.20 in 10.0 mi WNW 10.4 mph - N/A   Clear
5:55 PM 2.1 °F -11.6 °F -7.1 °F 66% 30.21 in 10.0 mi West 8.1 mph - N/A   Clear
6:15 PM 1.4 °F -12.5 °F -7.8 °F 65% 30.22 in 10.0 mi West 8.1 mph - N/A   Clear
6:35 PM 0.5 °F -13.6 °F -8.1 °F 67% 30.22 in 10.0 mi WNW 8.1 mph - N/A   Clear
6:55 PM 0.3 °F -13.8 °F -8.5 °F 66% 30.23 in 10.0 mi WNW 8.1 mph - N/A   Clear
7:15 PM -0.2 °F -14.4 °F -8.5 °F 68% 30.23 in 10.0 mi WNW 8.1 mph - N/A   Clear
7:35 PM -1.3 °F -15.7 °F -9.4 °F 69% 30.24 in 10.0 mi WNW 8.1 mph - N/A   Clear
7:55 PM -1.3 °F -15.7 °F -9.4 °F 69% 30.24 in 10.0 mi WNW 8.1 mph - N/A   Clear
8:15 PM -1.3 °F -15.7 °F -9.6 °F 68% 30.24 in 10.0 mi WNW 8.1 mph - N/A   Clear
8:35 PM -2.0 °F -15.4 °F -10.1 °F 68% 30.24 in 10.0 mi WNW 6.9 mph - N/A   Clear
8:55 PM -2.4 °F -14.4 °F -10.3 °F 69% 30.25 in 10.0 mi WNW 5.8 mph - N/A   Clear
9:15 PM -2.4 °F -12.7 °F -10.3 °F 69% 30.26 in 10.0 mi WNW 4.6 mph - N/A   Clear
9:35 PM -2.2 °F -14.2 °F -10.1 °F 69% 30.26 in 10.0 mi West 5.8 mph - N/A   Clear
9:55 PM -3.1 °F -16.7 °F -10.3 °F 71% 30.26 in 10.0 mi WNW 6.9 mph - N/A   Clear
10:15 PM -3.6 °F -17.3 °F -10.7 °F 72% 30.27 in 10.0 mi West 6.9 mph - N/A   Clear
10:35 PM -3.8 °F -17.5 °F -10.5 °F 73% 30.27 in 10.0 mi WNW 6.9 mph - N/A   Clear
10:55 PM -4.5 °F -18.4 °F -11.0 °F 74% 30.27 in 10.0 mi WNW 6.9 mph - N/A   Clear
11:15 PM -4.5 °F -19.7 °F -10.5 °F 76% 30.27 in 10.0 mi WNW 8.1 mph - N/A   Clear
11:35 PM -5.6 °F -18.2 °F -11.4 °F 76% 30.27 in 10.0 mi WNW 5.8 mph - N/A   Clear
11:55 PM -4.5 °F -16.9 °F -10.3 °F 76% 30.28 in 10.0 mi West 5.8 mph - N/A   Clear